Miscellaneous Local Product
Issued by NWS Hastings, NE

Home | Current Version | Previous Version | Text Only | Print | Product List | Glossary Off
Versions: 1 2 3 4 5 6 7 8 9 10 11 12 13 14 15 16 17 18 19 20 21 22 23 24 25 26 27 28 29 30 31 32 33 34 35 36 37 38 39 40 41 42 43 44 45 46 47 48 49 50

547
AXUS43 KGID 131102
MISGRI

GID CWA HOURLY WEATHER ROUNDUP
NATIONAL WEATHER SERVICE HASTINGS NE
500 AM CST SAT FEB 13 2016

NOTE: "FAIR" INDICATES FEW OR NO CLOUDS BELOW 12,000 FEET WITH NO
SIGNIFICANT WEATHER AND/OR OBSTRUCTIONS TO VISIBILITY.

...SOUTH CENTRAL NEBRASKA...

CITY           SKY/WX    TMP DP  RH WIND       PRES   REMARKS
GRAND ISLAND   CLOUDY    15   7  70 SE12      30.50F WCI   2
HASTINGS       CLOUDY    16   8  71 SE10      30.47F WCI   4
KEARNEY        CLOUDY    18  12  79 SE13      30.44F WCI   4
ORD            CLOUDY    16   6  65 SE10      30.43F WCI   4
YORK           CLOUDY    14   7  73 E9        30.54S WCI   2
AURORA         CLOUDY    15   8  71 SE9       30.52R WCI   4
LEXINGTON      CLOUDY    21  16  81 SE10      30.40F WCI  10
HOLDREGE       CLOUDY    19  16  87 SE9       30.43F WCI   9
HEBRON         CLOUDY    18  10  70 E9        30.54F WCI   6

...NEBRASKA PANHANDLE...

CITY           SKY/WX    TMP DP  RH WIND       PRES   REMARKS
CHADRON        CLOUDY    34  29  82 S13       30.10F WCI  25
ALLIANCE       CLOUDY    30  29  96 S16       30.12F FOG     WCI  19
SCOTTSBLUFF    CLOUDY    31  29  92 SE10      30.11F WCI  22
SIDNEY         FOG       30  30 100 S15       30.14F VSB 1   WCI  19

...WESTERN AND NORTH CENTRAL NEBRASKA...

CITY           SKY/WX    TMP DP  RH WIND       PRES   REMARKS
VALENTINE      CLOUDY    22  18  85 SE14      30.29F WCI   9
AINSWORTH      CLOUDY    20  16  84 SE14      30.33S WCI   7
ONEILL         LGT SNOW  14  10  83 SE10      30.45F WCI   1
BROKEN BOW     CLOUDY    18  14  84 SE13G22   30.38F WCI   5
IMPERIAL       CLOUDY    28  26  92 S16       30.26F WCI  16
NORTH PLATTE   CLOUDY    22  18  85 SE13      30.32F WCI  10
MCCOOK         CLOUDY    23  21  92 SE13      30.36F FOG     WCI  11

...EASTERN NEBRASKA...

CITY           SKY/WX    TMP DP  RH WIND       PRES   REMARKS
NORFOLK        CLOUDY    11   2  67 SE8       30.52F WCI  -1
SO SIOUX CITY  CLOUDY     5  -4  66 SE8       30.60F WCI  -8
TEKAMAH        CLOUDY     7  -3  64 SE3       30.63S
COLUMBUS       CLOUDY    12  -2  52 E6        30.56F WCI   3
ALBION         LGT SNOW  13   9  82 SE9       30.51F WCI   1
OMAHA EPPLEY   CLOUDY    10  -1  61 E7        30.63F WCI  -1
OFFUTT AFB     CLOUDY    10  -1  61 E3        30.61F
MILLARD        CLOUDY    12  -1  56 CALM      30.61F
LINCOLN        CLOUDY    15   5  64 NE8       30.60F WCI   4
NEBRASKA CITY  CLOUDY    13   1  58 NE6       30.60S WCI   3
BEATRICE       CLOUDY    17   6  63 E6        30.57R WCI   8
FALLS CITY     CLOUDY    15   3  59 NE7       30.61S WCI   5

...NORTHERN KANSAS...

CITY           SKY/WX    TMP DP  RH WIND       PRES   REMARKS
GOODLAND       CLOUDY    26  24  92 S20       30.26F FOG     WCI  12
HILL CITY      CLOUDY    22  17  81 E10       30.41F WCI  11
NORTON         CLOUDY    21  16  79 E10       30.39F WCI  10
PHILLIPSBURG   MOCLDY    21  18  86 CALM      30.46F
SMITH CENTER   CLOUDY    19  16  86 E12       30.47F WCI   7
BELOIT         MOCLDY    19  14  79 E8        30.51S WCI   9
HAYS           CLOUDY    21   9  58 E13       30.43S WCI   9
RUSSELL        CLOUDY    19  14  81 E9        30.44F WCI   8
CONCORDIA      CLOUDY    19  10  68 E8        30.52S WCI   9
SALINA         CLOUDY    22  12  65 E8        30.52F WCI  12
TOPEKA         CLOUDY    20   5  52 NE7       30.59S WCI  11



USA.gov is the U.S. government's official web portal to all federal, state and local government web resources and services.